FW4132 Weather Reports


Display with metric or nautical units.
time (UTC)temp
F
wind
direction
speed
MPH
gust
MPH
rain 1hr
in
rain 24hr
in
rain mn
in
humidity
%
barometer
mb
20260504014005 70 200 0.0 4.0 0.00 0.00 0.00 30 1013.9
20260504013847 71 200 1.0 5.0 0.00 0.00 0.00 30 1015.5
20260504013502 70 200 0.0 5.0 0.00 0.00 0.00 30 1014.0
20260504013341 71 200 1.0 5.0 0.00 0.00 0.00 30 1015.5
20260504013006 71 196 1.0 5.0 0.00 0.00 0.00 30 1013.9
20260504012835 71 165 1.0 3.0 0.00 0.00 0.00 31 1015.5
20260504012504 71 224 1.0 4.0 0.00 0.00 0.00 28 1014.0
20260504012330 71 132 2.0 4.0 0.00 0.00 0.00 30 1015.5
20260504012004 70 305 1.0 4.0 0.00 0.00 0.00 29 1014.0
20260504011824 71 276 1.0 4.0 0.00 0.00 0.00 29 1015.6
20260504011504 71 293 1.0 4.0 0.00 0.00 0.00 28 1014.0
20260504011317 71 325 1.0 4.0 0.00 0.00 0.00 28 1015.6
20260504011003 71 91 0.0 4.0 0.00 0.00 0.00 29 1014.1
20260504010811 71 265 1.0 4.0 0.00 0.00 0.00 29 1015.6
20260504010505 71 313 1.0 4.0 0.00 0.00 0.00 28 1014.1
20260504010305 72 114 2.0 4.0 0.00 0.00 0.00 29 1015.7
20260504010003 71 109 2.0 5.0 0.00 0.00 0.00 29 1014.1
20260504005759 71 156 2.0 5.0 0.00 0.00 0.00 29 1015.7
20260504005504 71 192 1.0 5.0 0.00 0.00 0.00 29 1014.2
20260504005253 72 238 2.0 7.0 0.00 0.00 0.00 27 1015.7
20260504005003 71 121 1.0 5.0 0.00 0.00 0.00 28 1014.1
20260504004747 72 200 2.0 7.0 0.00 0.00 0.00 29 1015.7
20260504004508 71 102 0.0 7.0 0.00 0.00 0.00 26 1014.2
20260504004242 72 165 2.0 8.0 0.00 0.00 0.00 26 1015.8
20260504004003 71 172 2.0 8.0 0.00 0.00 0.00 25 1014.3
20260504003735 72 279 2.0 8.0 0.00 0.00 0.00 28 1015.9
20260504003505 71 256 2.0 8.0 0.00 0.00 0.00 26 1014.4
20260504003229 71 107 2.0 6.0 0.00 0.00 0.00 29 1015.8
20260504003006 71 187 2.0 6.0 0.00 0.00 0.00 27 1014.3
20260504002723 71 93 2.0 7.0 0.00 0.00 0.00 28 1015.9
20260504002501 71 239 1.0 7.0 0.00 0.00 0.00 26 1014.4
20260504002217 71 132 2.0 7.0 0.00 0.00 0.00 27 1016.0
20260504002002 71 311 2.0 7.0 0.00 0.00 0.00 26 1014.5
20260504001711 71 196 1.0 6.0 0.00 0.00 0.00 29 1016.1
20260504001509 70 153 0.0 6.0 0.00 0.00 0.00 28 1014.5
20260504001205 70 169 2.0 7.0 0.00 0.00 0.00 29 1016.0
20260504001002 70 169 1.0 7.0 0.00 0.00 0.00 27 1014.5
20260504000705 70 215 2.0 7.0 0.00 0.00 0.00 28 1016.1
20260504000502 70 272 0.0 9.0 0.00 0.00 0.00 27 1014.7
20260504000205 70 120 2.0 9.0 0.00 0.00 0.00 29 1016.3
20260504000010 69 117 1.0 9.0 0.00 0.00 0.00 28 1014.6
20260503235705 70 253 1.0 9.0 0.00 0.00 0.00 27 1016.3
20260503235505 70 301 2.0 7.0 0.00 0.00 0.00 27 1014.6
20260503235203 70 298 2.0 9.0 0.00 0.00 0.00 28 1016.3
20260503235002 70 241 1.0 9.0 0.00 0.00 0.00 27 1014.6
20260503234926 70 303 3.0 9.0 0.00 0.00 0.00 28 1016.3
20260503234505 70 321 3.0 9.0 0.00 0.00 0.00 27 1014.7
20260503234204 70 117 3.0 9.0 0.00 0.00 0.00 28 1016.3
20260503234005 69 213 1.0 9.0 0.00 0.00 0.00 28 1014.8
20260503233703 70 193 3.0 9.0 0.00 0.00 0.00 28 1016.4
20260503233505 69 197 3.0 9.0 0.00 0.00 0.00 28 1014.9
20260503233203 70 238 3.0 9.0 0.00 0.00 0.00 28 1016.4
20260503233002 69 288 3.0 9.0 0.00 0.00 0.00 28 1014.9
20260503232925 70 227 3.0 7.0 0.00 0.00 0.00 29 1016.4
20260503232501 69 197 2.0 7.0 0.00 0.00 0.00 30 1014.9
20260503232203 70 210 2.0 6.0 0.00 0.00 0.00 30 1016.5
20260503232001 69 239 2.0 6.0 0.00 0.00 0.00 28 1015.0
20260503231703 69 246 1.0 5.0 0.00 0.00 0.00 30 1016.6
20260503231508 69 329 1.0 5.0 0.00 0.00 0.00 30 1015.0
20260503231203 69 148 2.0 8.0 0.00 0.00 0.00 29 1016.7
20260503231005 69 226 0.0 8.0 0.00 0.00 0.00 28 1015.2
20260503230927 69 313 2.0 8.0 0.00 0.00 0.00 29 1016.6
20260503230502 69 260 1.0 9.0 0.00 0.00 0.00 27 1015.1
20260503230204 69 248 3.0 9.0 0.00 0.00 0.00 29 1016.7
20260503230009 69 277 2.0 9.0 0.00 0.00 0.00 29 1015.2
20260503225703 69 218 3.0 9.0 0.00 0.00 0.00 28 1016.7
20260503225503 69 315 3.0 9.0 0.00 0.00 0.00 27 1015.3
20260503225204 70 243 2.0 9.0 0.00 0.00 0.00 29 1016.8
20260503225003 69 263 1.0 9.0 0.00 0.00 0.00 28 1015.4
20260503224703 70 325 3.0 9.0 0.00 0.00 0.00 28 1017.1
20260503224517 69 303 2.0 9.0 0.00 0.00 0.00 28 1015.5
20260503224157 69 254 4.0 10.0 0.00 0.00 0.00 29 1017.1
20260503224008 69 277 2.0 10.0 0.00 0.00 0.00 29 1015.5
20260503223911 69 261 4.0 10.0 0.00 0.00 0.00 28 1017.1
20260503223502 69 215 5.0 12.0 0.00 0.00 0.00 27 1015.7
20260503223145 70 290 3.0 12.0 0.00 0.00 0.00 28 1017.2
20260503223013 69 231 3.0 12.0 0.00 0.00 0.00 27 1015.7
20260503222639 70 236 3.0 12.0 0.00 0.00 0.00 28 1017.3
20260503222505 69 267 5.0 12.0 0.00 0.00 0.00 28 1015.6
20260503222133 70 229 2.0 9.0 0.00 0.00 0.00 27 1017.2
20260503222002 69 263 3.0 9.0 0.00 0.00 0.00 28 1015.8
20260503221627 70 231 1.0 5.0 0.00 0.00 0.00 28 1017.4
20260503221513 69 221 1.0 5.0 0.00 0.00 0.00 27 1015.9
20260503221122 70 227 1.0 6.0 0.00 0.00 0.00 28 1017.4
20260503221002 69 320 1.0 6.0 0.00 0.00 0.00 28 1015.9
20260503220615 69 252 2.0 8.0 0.00 0.00 0.00 32 1017.4
20260503220502 69 110 2.0 8.0 0.00 0.00 0.00 29 1015.9
20260503220109 69 200 3.0 8.0 0.00 0.00 0.00 28 1017.5
20260503220006 69 258 1.0 9.0 0.00 0.00 0.00 27 1016.0
20260503215602 69 225 3.0 11.0 0.00 0.00 0.00 29 1017.5
20260503215503 69 286 3.0 11.0 0.00 0.00 0.00 27 1016.0
20260503215101 70 275 3.0 11.0 0.00 0.00 0.00 27 1017.6
20260503215002 69 244 2.0 11.0 0.00 0.00 0.00 27 1016.1
20260503214602 69 288 3.0 9.0 0.00 0.00 0.00 29 1017.7
20260503214512 69 249 2.0 9.0 0.00 0.00 0.00 28 1016.1
20260503214101 69 275 3.0 8.0 0.00 0.00 0.00 27 1017.6
20260503214002 69 217 3.0 8.0 0.00 0.00 0.00 27 1016.1
20260503213601 69 159 3.0 8.0 0.00 0.00 0.00 27 1017.9
20260503213509 69 303 2.0 8.0 0.00 0.00 0.00 26 1016.3
20260503213100 70 315 3.0 8.0 0.00 0.00 0.00 27 1017.9
20260503213018 70 299 3.0 8.0 0.00 0.00 0.00 26 1016.3
20260503212559 70 271 3.0 11.0 0.00 0.00 0.00 27 1018.0
20260503212503 70 254 2.0 11.0 0.00 0.00 0.00 27 1016.3
20260503212059 70 15 3.0 11.0 0.00 0.00 0.00 27 1018.0
20260503212005 69 315 2.0 11.0 0.00 0.00 0.00 26 1016.3
20260503211825 69 115 3.0 8.0 0.00 0.00 0.00 27 1017.9
20260503211529 69 202 3.0 8.0 0.00 0.00 0.00 26 1016.4
20260503211010 69 216 1.0 9.0 0.00 0.00 0.00 27 1016.5
20260503210559 70 161 3.0 11.0 0.00 0.00 0.00 26 1018.0
20260503210503 69 287 2.0 11.0 0.00 0.00 0.00 29 1016.5
20260503210059 69 264 3.0 11.0 0.00 0.00 0.00 31 1018.1
20260503210017 69 167 3.0 11.0 0.00 0.00 0.00 29 1016.5
20260503205559 69 240 4.0 11.0 0.00 0.00 0.00 27 1018.2
20260503205503 69 232 3.0 11.0 0.00 0.00 0.00 27 1016.7
20260503205055 69 282 3.0 11.0 0.00 0.00 0.00 26 1018.1
20260503205002 69 243 5.0 11.0 0.00 0.00 0.00 27 1016.6
20260503204554 69 262 3.0 10.0 0.00 0.00 0.00 29 1018.2
20260503204512 69 254 3.0 10.0 0.00 0.00 0.00 29 1016.8
20260503204055 69 166 4.0 10.0 0.00 0.00 0.00 30 1018.3
20260503204006 68 158 2.0 10.0 0.00 0.00 0.00 29 1016.7
20260503203555 69 237 3.0 9.0 0.00 0.00 0.00 30 1018.1
20260503203507 68 246 3.0 9.0 0.00 0.00 0.00 29 1016.6
20260503203055 69 248 4.0 10.0 0.00 0.00 0.00 29 1018.3
20260503203012 68 244 2.0 10.0 0.00 0.00 0.00 31 1016.9
20260503202554 69 331 3.0 10.0 0.00 0.00 0.00 30 1018.3
20260503202507 68 258 3.0 10.0 0.00 0.00 0.00 29 1016.9
20260503202319 69 243 2.0 8.0 0.00 0.00 0.00 29 1018.4
20260503202007 69 269 2.0 9.0 0.00 0.00 0.00 30 1017.1
20260503201813 69 279 2.0 9.0 0.00 0.00 0.00 31 1018.4
20260503201520 68 281 3.0 10.0 0.00 0.00 0.00 30 1017.1
20260503201056 68 203 3.0 10.0 0.00 0.00 0.00 30 1018.5
20260503201005 68 213 3.0 10.0 0.00 0.00 0.00 31 1017.2
20260503200555 68 243 3.0 10.0 0.00 0.00 0.00 30 1018.5
20260503200513 67 251 5.0 10.0 0.00 0.00 0.00 29 1017.3
20260503200056 68 284 3.0 10.0 0.00 0.00 0.00 30 1018.5
20260503200024 67 320 2.0 10.0 0.00 0.00 0.00 30 1017.2
20260503195556 67 174 4.0 10.0 0.00 0.00 0.00 31 1018.7
20260503195507 67 333 4.0 10.0 0.00 0.00 0.00 30 1017.3
20260503195055 68 242 3.0 8.0 0.00 0.00 0.00 31 1018.7
20260503195009 67 262 1.0 8.0 0.00 0.00 0.00 30 1017.3
20260503194555 67 259 3.0 10.0 0.00 0.00 0.00 31 1018.9
20260503194525 67 146 2.0 11.0 0.00 0.00 0.00 32 1017.4
20260503194055 67 242 4.0 11.0 0.00 0.00 0.00 30 1018.9
20260503194010 67 247 5.0 11.0 0.00 0.00 0.00 30 1017.4
20260503193555 68 267 3.0 11.0 0.00 0.00 0.00 30 1019.0
20260503193507 68 264 4.0 10.0 0.00 0.00 0.00 29 1017.5
20260503193055 69 263 2.0 6.0 0.00 0.00 0.00 29 1018.9
20260503193031 69 323 2.0 6.0 0.00 0.00 0.00 29 1017.4
20260503192815 69 323 2.0 6.0 0.00 0.00 0.00 30 1019.0
20260503192503 68 271 1.0 6.0 0.00 0.00 0.00 31 1017.5
20260503192054 68 31 3.0 7.0 0.00 0.00 0.00 31 1019.0
20260503192006 68 249 2.0 7.0 0.00 0.00 0.00 30 1017.5
20260503191552 68 191 3.0 7.0 0.00 0.00 0.00 31 1019.0
20260503191518 67 188 2.0 7.0 0.00 0.00 0.00 30 1017.6
20260503191053 67 200 3.0 9.0 0.00 0.00 0.00 32 1019.1
20260503191006 67 202 2.0 9.0 0.00 0.00 0.00 32 1017.7
20260503190553 67 312 3.0 9.0 0.00 0.00 0.00 32 1019.1
20260503190512 67 278 2.0 9.0 0.00 0.00 0.00 31 1017.6
20260503190053 67 281 3.0 10.0 0.00 0.00 0.00 32 1019.1
20260503190024 66 264 3.0 8.0 0.00 0.00 0.00 31 1017.6
20260503185810 67 274 4.0 10.0 0.00 0.00 0.00 31 1019.2
20260503185507 66 251 4.0 9.0 0.00 0.00 0.00 30 1017.7
20260503185049 66 235 4.0 11.0 0.00 0.00 0.00 31 1019.1
20260503185009 66 239 2.0 11.0 0.00 0.00 0.00 31 1017.7
20260503184549 67 258 4.0 11.0 0.00 0.00 0.00 30 1019.2
20260503184526 66 236 3.0 11.0 0.00 0.00 0.00 30 1017.7
20260503184049 68 232 3.0 9.0 0.00 0.00 0.00 30 1019.2
20260503184003 67 291 2.0 9.0 0.00 0.00 0.00 29 1017.8
20260503183547 68 298 2.0 9.0 0.00 0.00 0.00 30 1019.2
20260503183502 67 298 3.0 9.0 0.00 0.00 0.00 30 1017.8
20260503183047 68 292 2.0 7.0 0.00 0.00 0.00 30 1019.2
20260503183003 67 300 2.0 7.0 0.00 0.00 0.00 29 1017.8
20260503182546 68 88 2.0 7.0 0.00 0.00 0.00 31 1019.2
20260503182502 67 130 1.0 7.0 0.00 0.00 0.00 30 1017.8
20260503182047 67 337 2.0 7.0 0.00 0.00 0.00 31 1019.3
20260503182004 67 91 3.0 7.0 0.00 0.00 0.00 30 1017.9
20260503181547 67 270 2.0 5.0 0.00 0.00 0.00 30 1019.2
20260503181502 66 310 2.0 5.0 0.00 0.00 0.00 29 1017.9
20260503181307 67 24 2.0 5.0 0.00 0.00 0.00 31 1019.5
20260503181002 66 304 1.0 8.0 0.00 0.00 0.00 30 1017.9
20260503180541 66 294 3.0 8.0 0.00 0.00 0.00 32 1019.3
20260503180503 66 231 1.0 8.0 0.00 0.00 0.00 32 1017.9
20260503180256 66 296 3.0 8.0 0.00 0.00 0.00 31 1019.6
20260503180004 65 292 4.0 8.0 0.00 0.00 0.00 30 1018.0
20260503175528 66 40 3.0 7.0 0.00 0.00 0.00 31 1019.5
20260503175504 65 22 2.0 7.0 0.00 0.00 0.00 30 1018.0
20260503175022 66 244 2.0 7.0 0.00 0.00 0.00 32 1019.3
20260503175003 65 241 3.0 7.0 0.00 0.00 0.00 31 1017.9
20260503174516 65 245 2.0 8.0 0.00 0.00 0.00 32 1019.6
20260503174503 65 246 2.0 8.0 0.00 0.00 0.00 31 1018.0
20260503174010 65 266 3.0 13.0 0.00 0.00 0.00 32 1019.7
20260503174003 65 272 3.0 13.0 0.00 0.00 0.00 32 1018.0
20260503173504 65 286 2.0 13.0 0.00 0.00 0.00 32 1018.0
20260503173012 65 317 1.0 8.0 0.00 0.00 0.00 32 1018.0
20260503172958 65 317 2.0 8.0 0.00 0.00 0.00 33 1019.6
20260503172503 65 272 2.0 8.0 0.00 0.00 0.00 32 1018.1
20260503172453 65 272 2.0 8.0 0.00 0.00 0.00 33 1019.6
20260503172209 64 125 3.0 9.0 0.00 0.00 0.00 33 1019.7
20260503172002 64 350 1.0 9.0 0.00 0.00 0.00 33 1018.1
20260503171503 64 268 2.0 9.0 0.00 0.00 0.00 32 1018.1
20260503171442 64 268 3.0 9.0 0.00 0.00 0.00 32 1019.7
20260503171001 64 260 1.0 9.0 0.00 0.00 0.00 32 1018.1
20260503170943 64 257 2.0 9.0 0.00 0.00 0.00 33 1019.8
20260503170502 63 132 0.0 4.0 0.00 0.00 0.00 35 1018.1
20260503170443 64 147 1.0 4.0 0.00 0.00 0.00 36 1019.8
20260503151002 51 292 1.0 3.0 0.00 0.00 0.00 53 1018.5
20260503150848 52 294 0.0 3.0 0.00 0.00 0.00 59 1020.0
20260503150503 50 287 0.0 4.0 0.00 0.00 0.00 58 1018.6
20260503150342 50 288 1.0 4.0 0.00 0.00 0.00 61 1019.9
20260503140230 38 279 0.0 0.0 0.00 0.00 0.00 88 1019.9
20260503131352 37 278 0.0 0.0 0.00 0.00 0.00 89 1019.9
20260503131004 37 278 0.0 0.0 0.00 0.00 0.00 88 1018.5
20260503130623 37 278 0.0 0.0 0.00 0.00 0.00 89 1020.0
20260503130503 37 278 0.0 0.0 0.00 0.00 0.00 88 1018.5
20260503130118 37 278 0.0 0.0 0.00 0.00 0.00 89 1019.9
20260503110534 38 279 0.0 0.0 0.00 0.00 0.00 86 1020.4
20260503110512 37 279 0.0 0.0 0.00 0.00 0.00 86 1018.8
20260503090503 40 279 0.0 0.0 0.00 0.00 0.00 82 1019.1
20260503081542 41 279 0.0 0.0 0.00 0.00 0.00 81 1019.3
20260503081031 41 279 0.0 0.0 0.00 0.00 0.00 82 1021.1
20260503081006 41 279 0.0 0.0 0.00 0.00 0.00 81 1019.3
20260503080511 41 279 0.0 0.0 0.00 0.00 0.00 81 1019.3
20260503072723 42 279 0.0 0.0 0.00 0.00 0.00 79 1020.7
20260503072507 42 279 0.0 0.0 0.00 0.00 0.00 78 1019.5
20260503072216 42 279 0.0 0.0 0.00 0.00 0.00 79 1020.8
20260503072004 42 279 0.0 0.0 0.00 0.00 0.00 78 1019.4
20260503071937 43 279 0.0 0.0 0.00 0.00 0.00 78 1020.7
20260503071535 42 279 0.0 0.0 0.00 0.00 0.00 77 1019.4
20260503071205 43 279 0.0 0.0 0.00 0.00 0.00 79 1020.7
20260503071010 42 279 0.0 0.0 0.00 0.00 0.00 77 1019.5
20260503070659 43 279 0.0 0.0 0.00 0.00 0.00 77 1020.8
20260503070512 43 279 0.0 0.0 0.00 0.00 0.00 76 1019.5
20260503070153 43 279 0.0 0.0 0.00 0.00 0.00 77 1020.8
20260503060118 46 279 0.0 0.0 0.00 0.00 0.00 73 1020.7
20260503055118 46 279 0.0 0.0 0.00 0.00 0.00 73 1020.6
20260503055002 45 279 0.0 0.0 0.00 0.00 0.00 72 1019.3
20260503054618 46 279 0.0 0.0 0.00 0.00 0.00 71 1020.6
20260503054516 45 279 0.0 0.0 0.00 0.00 0.00 70 1019.2
20260503054118 46 279 0.0 0.0 0.00 0.00 0.00 71 1020.6
20260503054006 46 279 0.0 0.0 0.00 0.00 0.00 71 1019.2
20260503053618 46 279 0.0 0.0 0.00 0.00 0.00 71 1020.7
20260503053503 46 279 0.0 0.0 0.00 0.00 0.00 71 1019.3
20260503053337 46 279 0.0 0.0 0.00 0.00 0.00 70 1020.7
20260503053005 46 279 0.0 0.0 0.00 0.00 0.00 70 1019.3
20260503052502 46 279 0.0 0.0 0.00 0.00 0.00 69 1019.2
20260503052116 46 279 0.0 0.0 0.00 0.00 0.00 70 1020.7
20260503052004 46 279 0.0 0.0 0.00 0.00 0.00 70 1019.3
20260503051616 46 279 0.0 0.0 0.00 0.00 0.00 70 1020.7
20260503051502 46 279 0.0 0.0 0.00 0.00 0.00 70 1019.1
20260503051117 47 279 0.0 0.0 0.00 0.00 0.00 70 1020.7
20260503051003 46 279 0.0 0.0 0.00 0.00 0.00 70 1019.1
20260503050612 47 279 0.0 0.0 0.00 0.00 0.00 71 1020.6
20260503050501 46 279 0.0 0.0 0.00 0.00 0.00 70 1019.1
20260503050113 47 279 0.0 0.0 0.00 0.00 0.00 69 1020.6
20260503050006 47 279 0.0 0.0 0.00 0.00 0.00 68 1019.2
20260503045836 47 279 0.0 0.0 0.00 0.00 0.00 69 1020.7
20260503045503 47 279 0.0 1.0 0.00 0.00 0.00 69 1019.3
20260503045112 48 279 0.0 1.0 0.00 0.00 0.00 68 1020.6
20260503045002 47 279 0.0 1.0 0.00 0.00 0.00 67 1019.3
20260503044612 48 279 0.0 1.0 0.00 0.00 0.00 67 1020.6
20260503044513 48 279 0.0 1.0 0.00 0.00 0.00 65 1019.2
20260503044112 49 279 0.0 1.0 0.00 0.00 0.00 64 1020.6
20260503044002 48 279 0.0 1.0 0.00 0.00 0.00 64 1019.2
20260503043612 49 279 0.0 0.0 0.00 0.00 0.00 64 1020.6
20260503043502 49 279 0.0 0.0 0.00 0.00 0.00 64 1019.2
20260503043329 49 279 0.0 0.0 0.00 0.00 0.00 64 1020.5
20260503043011 49 279 0.0 0.0 0.00 0.00 0.00 63 1019.2
20260503042612 50 279 0.0 1.0 0.00 0.00 0.00 62 1020.4
20260503042507 49 279 0.0 1.0 0.00 0.00 0.00 61 1019.1
20260503042108 50 279 0.0 1.0 0.00 0.00 0.00 61 1020.4
20260503042002 50 279 0.0 1.0 0.00 0.00 0.00 60 1019.1
20260503041608 50 279 0.0 1.0 0.00 0.00 0.00 61 1020.5
20260503041506 50 279 0.0 1.0 0.00 0.00 0.00 60 1019.1
20260503041108 51 279 0.0 1.0 0.00 0.00 0.00 61 1020.4
20260503041002 50 279 0.0 1.0 0.00 0.00 0.00 60 1019.1
20260503040608 51 279 0.0 1.0 0.00 0.00 0.00 60 1020.3
20260503040502 50 279 0.0 1.0 0.00 0.00 0.00 60 1019.0
20260503040108 51 279 0.0 1.0 0.00 0.00 0.00 60 1020.4
20260503040004 51 279 0.0 1.0 0.00 0.00 0.00 60 1019.0
20260503035608 51 279 0.0 2.0 0.00 0.00 0.00 59 1020.4
20260503035503 51 279 0.0 2.0 0.00 0.00 0.00 59 1018.9
20260503035108 52 279 1.0 3.0 0.00 0.00 0.00 59 1020.1
20260503035006 51 279 0.0 3.0 0.00 0.00 0.00 58 1018.7
20260503034608 52 279 1.0 3.0 0.00 0.00 0.00 58 1020.0
20260503034504 52 279 1.0 3.0 0.00 0.00 0.00 57 1018.6
20260503034108 53 286 0.0 1.0 0.00 0.00 0.00 56 1020.0
20260503034004 53 286 0.0 1.0 0.00 0.00 0.00 55 1018.5
20260503033608 54 286 0.0 2.0 0.00 0.00 0.00 56 1020.1
20260503033504 54 286 0.0 2.0 0.00 0.00 0.00 55 1018.5
20260503033108 54 286 0.0 2.0 0.00 0.00 0.00 55 1020.1
20260503033021 54 286 0.0 2.0 0.00 0.00 0.00 54 1018.4
20260503032608 55 286 0.0 1.0 0.00 0.00 0.00 55 1020.1
20260503032502 54 286 0.0 1.0 0.00 0.00 0.00 54 1018.4
20260503032107 55 286 0.0 1.0 0.00 0.00 0.00 54 1020.1
20260503032006 55 286 0.0 1.0 0.00 0.00 0.00 53 1018.4
20260503031830 56 286 0.0 1.0 0.00 0.00 0.00 53 1019.9
20260503031516 56 286 0.0 1.0 0.00 0.00 0.00 53 1018.4
20260503031107 57 286 0.0 1.0 0.00 0.00 0.00 53 1019.9
20260503031004 56 286 0.0 1.0 0.00 0.00 0.00 52 1018.3
20260503030608 57 286 0.0 1.0 0.00 0.00 0.00 52 1019.8
20260503030507 57 286 0.0 1.0 0.00 0.00 0.00 51 1018.2
20260503030325 58 286 0.0 1.0 0.00 0.00 0.00 51 1019.7
20260503030012 58 286 0.0 1.0 0.00 0.00 0.00 50 1018.1
20260503025608 59 286 0.0 1.0 0.00 0.00 0.00 50 1019.7
20260503025509 58 286 0.0 1.0 0.00 0.00 0.00 49 1018.1
20260503025106 60 286 0.0 1.0 0.00 0.00 0.00 49 1019.6
20260503025005 59 286 0.0 1.0 0.00 0.00 0.00 48 1018.1
20260503024605 60 286 0.0 2.0 0.00 0.00 0.00 48 1019.6
20260503024503 60 286 0.0 2.0 0.00 0.00 0.00 47 1018.1
20260503024102 60 286 1.0 3.0 0.00 0.00 0.00 47 1019.6
20260503024003 60 286 0.0 3.0 0.00 0.00 0.00 46 1018.1
20260503023602 61 286 1.0 3.0 0.00 0.00 0.00 46 1019.6
20260503023504 61 286 0.0 3.0 0.00 0.00 0.00 44 1018.0
20260503023102 62 286 0.0 3.0 0.00 0.00 0.00 44 1019.5
20260503023004 61 286 0.0 3.0 0.00 0.00 0.00 44 1018.0
20260503022602 62 275 1.0 4.0 0.00 0.00 0.00 43 1019.5
20260503022503 62 275 0.0 4.0 0.00 0.00 0.00 43 1018.0
20260503022102 62 245 1.0 4.0 0.00 0.00 0.00 43 1019.3
20260503022004 62 245 0.0 4.0 0.00 0.00 0.00 42 1017.9
20260503021600 63 259 1.0 4.0 0.00 0.00 0.00 41 1019.5
20260503021504 62 259 1.0 4.0 0.00 0.00 0.00 41 1017.9
20260503021059 63 300 1.0 4.0 0.00 0.00 0.00 41 1019.5
20260503021003 63 300 1.0 4.0 0.00 0.00 0.00 40 1018.0
20260503020600 64 238 1.0 4.0 0.00 0.00 0.00 40 1019.5
20260503020506 63 238 1.0 6.0 0.00 0.00 0.00 39 1018.0
20260503020058 64 308 2.0 6.0 0.00 0.00 0.00 40 1019.5
20260503020016 63 308 1.0 6.0 0.00 0.00 0.00 40 1018.0
20260503015558 64 275 2.0 6.0 0.00 0.00 0.00 40 1019.6
20260503015503 63 294 2.0 6.0 0.00 0.00 0.00 39 1018.0
20260503015057 64 322 2.0 6.0 0.00 0.00 0.00 39 1019.6
20260503015002 64 275 2.0 6.0 0.00 0.00 0.00 38 1018.0
20260503014558 65 252 1.0 6.0 0.00 0.00 0.00 38 1019.6
20260503014517 64 257 1.0 3.0 0.00 0.00 0.00 38 1018.1